Kapolei, HI

4:48 PM HST on February 07, 2016 (GMT -1000)
Kalaeloa (John Rodgers Field)

Weather History for PHJR - January, 2012

Change the Weather History Date:

Wednesday, January 18, 2012

  Actual Average (PHNL) Record (PHNL)
Temperature  
Mean Temperature 78 °F 73 °F  
Max Temperature 81 °F 80 °F 85 °F (2015)
Min Temperature 73 °F 66 °F 57 °F (1963)
Degree Days  
Heating Degree Days 0 0  
Month to date heating degree days 0  
Since 1 July heating degree days 0  
Cooling Degree Days 13 8  
Month to date cooling degree days 146  
Year to date cooling degree days 146  
Growing Degree Days 28 (Base 50)    
Moisture  
Dew Point 70 °F    
Average Humidity 81    
Maximum Humidity 89    
Minimum Humidity 69    
Precipitation  
Precipitation 0.00 in 0.06 in 1.21 in (1988)
Month to date precipitation 1.49  
Year to date precipitation 1.49  
Snow  
Snow 0.00 in - - ()
Month to date snowfall  
Since 1 July snowfall  
Snow Depth -    
Sea Level Pressure  
Sea Level Pressure 30.03 in    
Wind  
Wind Speed 10 mph (South)    
Max Wind Speed 15 mph    
Max Gust Speed -    
Visibility 10 miles    
Events      
T = Trace of Precipitation, MM = Missing Value Source: NWS Daily Summary

Daily Weather History Graph

Daily Weather History Graph

Search for Another Location

Airport or City:

Trip Planner

Search our weather history database for the weather conditions in past years. The results will help you decide how hot, cold, wet, or windy it might be!

Date:

Astronomy

Jan. 18, 2012 Rise Set
Actual Time 7:12 AM HST 6:13 PM HST
Civil Twilight 6:48 AM HST 6:36 PM HST
Nautical Twilight 6:21 AM HST 7:04 PM HST
Astronomical Twilight 5:54 AM HST 7:30 PM HST
Moon 2:51 AM HST (1/18) 2:06 PM HST (1/18)
Length of Visible Light 11h 48m
Length of Day
11h 00m
Waning Crescent, 23% of the Moon is Illuminated
Jan 18
Waning Crescent
Jan 22
New
Jan 30
First Quarter
Feb 7
Full
Feb 14
Last Quarter

Hourly Weather History & Observations

Time (HST) Temp. Heat Index Dew Point Humidity Pressure Visibility Wind Dir Wind Speed Gust Speed Precip Events Conditions
12:53 AM 75.9 °F - 71.1 °F 85% 30.03 in 10.0 mi South 12.7 mph - N/A   Mostly Cloudy
1:32 AM 75.2 °F - 71.6 °F 89% 29.97 in 10.0 mi SSE 13.8 mph - N/A   Scattered Clouds
1:53 AM 75.0 °F - 71.1 °F 87% 29.99 in 10.0 mi SSE 13.8 mph - N/A   Partly Cloudy
2:53 AM 75.9 °F - 71.1 °F 85% 30.00 in 10.0 mi South 15.0 mph - N/A   Mostly Cloudy
3:38 AM 75.2 °F - 71.6 °F 89% 29.98 in 10.0 mi South 12.7 mph - N/A   Overcast
3:53 AM 75.9 °F - 71.1 °F 85% 30.00 in 10.0 mi South 10.4 mph - N/A   Overcast
4:53 AM 75.9 °F - 71.1 °F 85% 30.00 in 10.0 mi South 6.9 mph - N/A   Mostly Cloudy
5:53 AM 75.9 °F - 71.1 °F 85% 30.02 in 10.0 mi South 9.2 mph - N/A   Overcast
6:24 AM 75.2 °F - 71.6 °F 89% 30.00 in 10.0 mi South 9.2 mph - N/A   Scattered Clouds
6:53 AM 75.0 °F - 70.0 °F 84% 30.03 in 10.0 mi South 8.1 mph - N/A   Partly Cloudy
7:44 AM 75.2 °F - 71.6 °F 89% 30.03 in 10.0 mi South 8.1 mph - N/A   Mostly Cloudy
7:53 AM 75.9 °F - 71.1 °F 85% 30.05 in 10.0 mi South 8.1 mph - N/A   Mostly Cloudy
8:19 AM 75.2 °F - 71.6 °F 89% 30.04 in 10.0 mi South 8.1 mph - N/A   Mostly Cloudy
8:53 AM 77.0 °F - 71.1 °F 82% 30.07 in 10.0 mi South 8.1 mph - N/A   Scattered Clouds
9:53 AM 77.0 °F - 70.0 °F 79% 30.08 in 10.0 mi South 10.4 mph - N/A   Mostly Cloudy
10:28 AM 78.8 °F - 71.6 °F 78% 30.07 in 10.0 mi South 10.4 mph - N/A   Mostly Cloudy
10:39 AM 78.8 °F - 69.8 °F 74% 30.06 in 10.0 mi South 10.4 mph - N/A   Mostly Cloudy
10:49 AM 80.6 °F 83.9 °F 69.8 °F 70% 30.05 in 10.0 mi South 9.2 mph - N/A   Partly Cloudy
10:53 AM 79.0 °F - 70.0 °F 74% 30.07 in 10.0 mi South 10.4 mph - N/A   Partly Cloudy
11:53 AM 81.0 °F 84.9 °F 71.1 °F 72% 30.05 in 10.0 mi South 10.4 mph - N/A   Scattered Clouds
12:53 PM 81.0 °F 84.4 °F 70.0 °F 69% 30.02 in 10.0 mi South 9.2 mph - N/A   Scattered Clouds
1:01 PM 80.6 °F 83.9 °F 69.8 °F 70% 29.99 in 10.0 mi South 9.2 mph - N/A   Mostly Cloudy
1:53 PM 79.0 °F - 70.0 °F 74% 30.00 in 10.0 mi South 8.1 mph - N/A   Mostly Cloudy
2:35 PM 80.6 °F 83.9 °F 69.8 °F 70% 29.98 in 10.0 mi South 8.1 mph - N/A   Partly Cloudy
2:53 PM 80.1 °F 83.2 °F 70.0 °F 71% 29.99 in 10.0 mi South 6.9 mph - N/A   Partly Cloudy
3:53 PM 79.0 °F - 70.0 °F 74% 30.00 in 10.0 mi South 10.4 mph - N/A   Scattered Clouds
4:53 PM 78.1 °F - 69.1 °F 74% 30.01 in 10.0 mi South 8.1 mph - N/A   Clear
5:53 PM 77.0 °F - 70.0 °F 79% 30.02 in 10.0 mi SSE 6.9 mph - N/A   Scattered Clouds
6:09 PM 75.2 °F - 69.8 °F 83% 30.00 in 10.0 mi SSE 6.9 mph - N/A   Mostly Cloudy
6:53 PM 75.9 °F - 70.0 °F 82% 30.04 in 10.0 mi SSE 8.1 mph - N/A   Mostly Cloudy
7:15 PM 75.2 °F - 69.8 °F 83% 30.03 in 10.0 mi South 5.8 mph - N/A   Scattered Clouds
7:30 PM 75.2 °F - 69.8 °F 83% 30.04 in 10.0 mi SSE 5.8 mph - N/A   Mostly Cloudy
7:53 PM 75.9 °F - 70.0 °F 82% 30.07 in 10.0 mi SSE 5.8 mph - N/A   Mostly Cloudy
8:24 PM 75.2 °F - 69.8 °F 83% 30.06 in 10.0 mi SSE 8.1 mph - N/A   Scattered Clouds
8:53 PM 75.0 °F - 69.1 °F 82% 30.09 in 10.0 mi South 6.9 mph - N/A   Scattered Clouds
9:53 PM 75.0 °F - 69.1 °F 82% 30.10 in 10.0 mi South 5.8 mph - N/A   Scattered Clouds
10:53 PM 75.0 °F - 70.0 °F 84% 30.12 in 10.0 mi SSE 6.9 mph - N/A   Partly Cloudy
11:53 PM 73.9 °F - 69.1 °F 85% 30.11 in 10.0 mi SSE 6.9 mph - N/A   Clear